DLH6XR EDDF-EDDM

Flight info

Callsign DLH6XR
Flight time N/A
Altitude 23000
Route CINDY8S/18 CINDY Z74 HAREM T104 ROKIL ROKIL1A
Aircraft A320/M-SDE3FGHIRWY/LB1

Departure

Time 2026-05-06 14:42
Airport Frankfurt Main Airport (EDDF)

Arrival

Time N/A
Airport Munich Airport (EDDM)
Time Latitude Longitude Altitude Speed Heading
2026-05-06 14:13 50.04895 8.56994 356 ft 0 kts 295°
2026-05-06 14:28 50.04887 8.57023 364 ft 4 kts 293°
2026-05-06 14:28 50.04878 8.57052 358 ft 4 kts 296°
2026-05-06 14:29 50.04871 8.57086 364 ft 4 kts 251°
2026-05-06 14:29 50.04863 8.57074 359 ft 4 kts 219°
2026-05-06 14:29 50.04838 8.57059 359 ft 4 kts 197°
2026-05-06 14:29 50.04812 8.57046 359 ft 4 kts 199°
2026-05-06 14:30 50.04794 8.57034 356 ft 0 kts 205°
2026-05-06 14:35 50.04763 8.57012 359 ft 12 kts 205°
2026-05-06 14:35 50.04677 8.56951 360 ft 14 kts 205°
2026-05-06 14:35 50.04582 8.56903 357 ft 14 kts 193°
2026-05-06 14:36 50.04492 8.56868 359 ft 13 kts 194°
2026-05-06 14:36 50.04435 8.56754 363 ft 17 kts 250°
2026-05-06 14:36 50.04389 8.56565 359 ft 19 kts 249°
2026-05-06 14:36 50.04341 8.56363 361 ft 20 kts 252°
2026-05-06 14:37 50.04291 8.56161 358 ft 20 kts 250°
2026-05-06 14:37 50.04243 8.55959 356 ft 20 kts 250°
2026-05-06 14:37 50.04227 8.55890 356 ft 20 kts 251°
2026-05-06 14:37 50.04183 8.55700 361 ft 21 kts 249°
2026-05-06 14:38 50.04124 8.55455 358 ft 26 kts 250°
2026-05-06 14:38 50.04063 8.55200 357 ft 24 kts 249°
2026-05-06 14:38 50.04004 8.54957 359 ft 24 kts 250°
2026-05-06 14:38 50.03946 8.54711 354 ft 24 kts 250°
2026-05-06 14:39 50.03887 8.54464 355 ft 24 kts 249°
2026-05-06 14:39 50.03805 8.54239 351 ft 24 kts 244°
2026-05-06 14:39 50.03746 8.53998 352 ft 24 kts 249°
2026-05-06 14:39 50.03688 8.53752 351 ft 24 kts 249°
2026-05-06 14:40 50.03627 8.53508 339 ft 24 kts 249°
2026-05-06 14:40 50.03566 8.53262 338 ft 26 kts 249°
2026-05-06 14:40 50.03505 8.53004 335 ft 25 kts 250°
2026-05-06 14:40 50.03441 8.52756 333 ft 24 kts 248°
2026-05-06 14:41 50.03392 8.52600 333 ft 11 kts 215°
2026-05-06 14:41 50.03314 8.52595 335 ft 14 kts 179°
2026-05-06 14:41 50.03049 8.52595 335 ft 71 kts 179°
2026-05-06 14:41 50.02352 8.52605 334 ft 127 kts 180°
2026-05-06 14:42 50.01310 8.52614 349 ft 170 kts 186°
2026-05-06 14:42 50.00133 8.52624 918 ft 170 kts 183°
2026-05-06 14:42 49.98926 8.52637 1497 ft 179 kts 185°
2026-05-06 14:42 49.97605 8.52696 1830 ft 203 kts 173°
2026-05-06 14:43 49.96293 8.53787 2201 ft 230 kts 134°
2026-05-06 14:43 49.95410 8.55954 2866 ft 240 kts 122°
2026-05-06 14:43 49.94604 8.58225 3681 ft 240 kts 121°
2026-05-06 14:43 49.94059 8.60693 4429 ft 248 kts 99°
2026-05-06 14:44 49.93974 8.62497 4838 ft 256 kts 95°
2026-05-06 14:44 49.93828 8.66317 5455 ft 278 kts 99°
2026-05-06 14:44 49.93520 8.68284 5946 ft 279 kts 115°
2026-05-06 14:45 49.91720 8.71807 7086 ft 275 kts 147°
2026-05-06 14:45 49.90663 8.72975 7590 ft 277 kts 147°
2026-05-06 14:45 49.89116 8.74786 8333 ft 282 kts 140°
2026-05-06 14:45 49.88634 8.75529 8589 ft 285 kts 134°
2026-05-06 14:46 49.88316 8.76102 8765 ft 286 kts 131°
2026-05-06 14:46 49.87517 8.77975 9298 ft 291 kts 121°